Location: Arthez
(43.0833°N, 0.2500°W)
Time: 23:14:43
(UTC+00:00)

deb Kosmos-970 - Pass Details

Date: 25 August 2022
Orbit: 900 x 1112 km, 65.8° (Epoch: 28 September)

Event Time Altitude Azimuth Distance (km) Brightness Sun altitude
Rises 00:33:25 0° 314° (NW) 3,916 ? -35.7°
Reaches altitude 10° 00:37:02 10° 296° (WNW) 2,928 ? -35.5°
Enters shadow 00:38:22 14° 287° (WNW) 2,655 ? -35.5°
